Erzincan, Turkey

10:21 AM +03 on April 27, 2017 (GMT +0300)
Erzincan

Weather History for LTCD - July, 2013

Change the Weather History Date:

Saturday, July 27, 2013

  Actual Average Record
Temperature  
Mean Temperature 68 °F -  
Max Temperature 86 °F 88 °F - ()
Min Temperature 50 °F 58 °F - ()
Cooling Degree Days 3    
Growing Degree Days 18 (Base 50)    
Moisture  
Dew Point 43 °F    
Average Humidity 39    
Maximum Humidity 67    
Minimum Humidity 12    
Precipitation  
Precipitation 0.00 in 0.01 in - ()
Sea Level Pressure  
Sea Level Pressure 29.76 in    
Wind  
Wind Speed 6 mph ()    
Max Wind Speed 18 mph    
Max Gust Speed 30 mph    
Visibility 7.6 miles    
Events      
T = Trace of Precipitation, MM = Missing Value Source: Averaged Metar Reports

Daily Weather History Graph

Daily Weather History Graph

Search for Another Location

Airport or City:

Trip Planner

Search our weather history database for the weather conditions in past years. The results will help you decide how hot, cold, wet, or windy it might be!

Date:

Astronomy

Jul. 27, 2013 Rise Set
Actual Time 5:16 AM EEST 7:40 PM EEST
Civil Twilight 4:45 AM EEST 8:10 PM EEST
Nautical Twilight 4:07 AM EEST 8:48 PM EEST
Astronomical Twilight 3:25 AM EEST 9:30 PM EEST
Moon 10:16 PM EEST 10:33 AM EEST
Length of Visible Light 15h 24m
Length of Day
14h 23m
Waning Gibbous, 74% of the Moon is Illuminated
Jul 27
Waning Gibbous
Jul 29
Last Quarter
Aug 7
New
Aug 14
First Quarter
Aug 21
Full

Hourly Weather History & Observations

Time (EEST) Temp. Dew Point Humidity Pressure Visibility Wind Dir Wind Speed Gust Speed Precip Events Conditions
12:50 AM 62.6 °F 41.0 °F 45% 29.83 in - NW 5.8 mph - N/A   Clear
1:50 AM 62.6 °F 42.8 °F 48% 29.83 in - West 8.1 mph - N/A   Clear
2:50 AM 60.8 °F 42.8 °F 52% 29.83 in - WNW 3.5 mph - N/A   Clear
3:00 AM 61 °F 43 °F 40%  in 12 mi WNW 3.5 mph - -  
3:50 AM 57.2 °F 42.8 °F 59% 29.80 in - West 5.8 mph - N/A   Clear
4:50 AM 55.4 °F 42.8 °F 63% 29.80 in - Calm Calm - N/A   Clear
5:50 AM 53.6 °F 42.8 °F 67% 29.80 in - Calm Calm - N/A   Clear
6:50 AM 59.0 °F 44.6 °F 59% 29.80 in - Calm Calm - N/A   Clear
7:50 AM 62.6 °F 44.6 °F 52% 29.80 in - South 3.5 mph - N/A   Clear
8:50 AM 68.0 °F 44.6 °F 43% 29.80 in - Variable 1.2 mph - N/A   Clear
9:00 AM 68 °F 44 °F 30%  in 12 mi East 1.2 mph - -  
9:50 AM 71.6 °F 41.0 °F 33% 29.77 in - Variable 3.5 mph - N/A   Clear
10:50 AM 73.4 °F 41.0 °F 31% 29.77 in - Variable 3.5 mph - N/A   Clear
11:50 AM 77.0 °F 42.8 °F 29% 29.74 in 6.2 mi South 6.9 mph - N/A   Partly Cloudy
12:50 PM 78.8 °F 42.8 °F 28% 29.71 in 6.2 mi Variable 3.5 mph - N/A   Partly Cloudy
1:50 PM 80.6 °F 42.8 °F 26% 29.68 in 6.2 mi ENE 3.5 mph - N/A   Scattered Clouds
2:50 PM 84.2 °F 41.0 °F 22% 29.68 in 6.2 mi Variable 3.5 mph - N/A   Scattered Clouds
3:00 PM 84 °F 39 °F 12%  in 12 mi WNW 3.5 mph - -   Partly Cloudy
3:40 PM 84.2 °F 39.2 °F 20% 29.65 in 6.2 mi NNW 15.0 mph - N/A   Scattered Clouds
3:50 PM 84.2 °F 41.0 °F 22% 29.65 in 6.2 mi North 13.8 mph - N/A   Scattered Clouds
4:50 PM 82.4 °F 42.8 °F 25% 29.65 in 6.2 mi NNE 16.1 mph - N/A   Scattered Clouds
5:50 PM 78.8 °F 44.6 °F 30% 29.68 in 6.2 mi NNE 18.4 mph 29.9 mph N/A   Scattered Clouds
6:50 PM 75.2 °F 44.6 °F 34% 29.71 in - North 18.4 mph 29.9 mph N/A   Clear
7:50 PM 71.6 °F 44.6 °F 38% 29.74 in 6.2 mi North 13.8 mph - N/A   Partly Cloudy
8:50 PM 69.8 °F 46.4 °F 43% 29.80 in 6.2 mi WNW 11.5 mph - N/A   Partly Cloudy
9:00 PM 69 °F 45 °F 31%  in 12 mi WNW 11.5 mph - -   Scattered Clouds
9:50 PM 68.0 °F 46.4 °F 46% 29.83 in 6.2 mi WNW 13.8 mph - N/A   Partly Cloudy
10:50 PM 68.0 °F 46.4 °F 46% 29.83 in 6.2 mi WNW 15.0 mph - N/A   Partly Cloudy
11:50 PM 66.2 °F 46.4 °F 49% 29.83 in 6.2 mi NW 15.0 mph - N/A   Partly Cloudy